C/2018 P5 ( PanSTARRS )

Japanese version
Home page
Updated on August 25, 2018

---------------------------------------------------------------------

* Profile

Discovery Date August 11, 2018
Magnitude 20.9 mag
Discoverer Pan-STARRS 1 telescope (Haleakala)

* Orbital Elements

Epoch 2019 Mar. 18.0 TT = JDT 2458560.5
T 2019 Feb. 26.26434 TT                                 MPCW
q   4.5757312            (2000.0)            P               Q
n   0.02166403     Peri.  131.63999     +0.97417981     +0.21306535
a  12.7441223      Node   216.24241     -0.22571751     +0.92648679
e   0.6409536      Incl.    7.25676     +0.00503006     +0.31020216
P  45.50
From 34 observations 2018 June 16-Aug. 17, mean residual 0".3.

* Magnitudes Graph

        m1 = 10.5 + 5 log d + 10.0 log r

---------------------------------------------------------------------

The orbital elements are published on M.P.E.C. 2018-Q36.
The magnitudes graphs are made with Comet for Windows.

---------------------------------------------------------------------

Copyright(C) Seiichi Yoshida (comet@aerith.net). All rights reserved.